Regional Weather Roundup
Issued by NWS

Home | Current Version | Previous Version | Text Only | Print | Product List | Glossary On
Versions: 1 2 3 4 5 6 7 8 9 10 11 12 13 14 15 16 17 18 19 20 21 22 23 24 25 26 27 28 29 30 31 32 33 34 35 36 37 38 39 40 41 42 43 44 45 46 47 48 49 50
752
ASUS43 KMPX 300310
RWRMN
WEATHER ROUNDUP FOR MINNESOTA
NATIONAL WEATHER SERVICE TWIN CITIES/CHANHASSEN MN
1000 PM CDT MON AUG 29 2016


NOTE: "FAIR" INDICATES FEW OR NO CLOUDS BELOW 12,000 FEET WITH NO
SIGNIFICANT WEATHER AND/OR OBSTRUCTIONS TO VISIBILITY. N/A MEANS
CURRENT SKY AND/OR WEATHER CONDITIONS ARE NOT AVAILABLE.

MNZ060>063-068>070-300400-
   Twin Cities Metro

CITY           SKY/WX    TMP DP  RH WIND       PRES   REMARKS
TWIN CITIES    MOCLDY    79  68  69 SW10      30.13F
ST PAUL        PTCLDY    75  69  81 SE8       30.13S
CRYSTAL        PTCLDY    78  68  71 S7        30.11S
BLAINE         MOCLDY    79  64  61 N12       30.14R
LAKEVILLE      PTCLDY    70  70 100 CALM      30.15S
EDEN PRAIRIE   PTCLDY    78  70  76 SW8       30.13S
LAKEVILLE      PTCLDY    70  70 100 CALM      30.15S
SOUTH ST PAUL  PTCLDY    77  68  75 S5        30.14R
LAKE ELMO      CLOUDY    75  70  83 S5        30.16R THUNDER
$$
MNZ001>005-007-008-013>017-022>024-027-028-300400-
   Northwest Minnesota

CITY           SKY/WX    TMP DP  RH WIND       PRES   REMARKS
BEMIDJI        CLEAR     62  58  88 W3        30.17R
HALLOCK        CLEAR     63  52  67 NW5       30.18S
ROSEAU         CLEAR     61  54  77 CALM      30.18R
WARROAD        CLEAR     61  54  77 W7        30.17S
THIEF RVR FALL CLEAR     60  54  80 NW7       30.19R
CROOKSTON      CLEAR     63  55  77 N6        30.18S
FOSSTON        CLEAR     57  54  88 NW3       30.19R
DETROIT LAKES  CLEAR     66  61  82 NW3       30.20R
MOORHEAD       CLEAR     64  57  77 NW8       30.19R
PARK RAPIDS    CLEAR     66  63  90 NW3       30.18R
MAHNOMEN       FAIR      63  59  87 N3        30.18R
$$
MNZ006-009>011-018-025>026-300400-
   North Central Minnesota

CITY           SKY/WX    TMP DP  RH WIND       PRES   REMARKS
BAUDETTE       CLEAR     60  55  83 W7        30.15R
FLAG ISLAND    CLEAR     64  54  68 NW7       30.15R
INTL FALLS     CLEAR     63  60  90 NW6       30.12R
WASKISH        CLEAR     66  59  77 NW8       30.16R
BIG FORK       CLEAR     66  61  82 CALM      30.15R
LONGVILLE      CLEAR     64  63  94 CALM      30.17R
GRAND RAPIDS   CLEAR     64  64 100 CALM      30.18R FOG
CRANE LAKE     CLEAR     61  61 100 CALM      30.13R
ORR            PTCLDY    64  63  94 CALM      30.11R
COOK           CLEAR     66  64  94 CALM      30.13R FOG
WALKER         FAIR      64  61  88 NW7       30.17R
$$
MNZ012-019>021-037-300400-
   Northeast Minnesota

CITY           SKY/WX    TMP DP  RH WIND       PRES   REMARKS
DULUTH         CLOUDY    70  66  87 W15       30.14S
ELY            MOCLDY    66  64  94 CALM      30.13R FOG
HIBBING        CLEAR     62  62 100 CALM      30.14R FOG
EVELETH        CLEAR     65  65  97 CALM      30.15R
DULUTH HARBOR  TSTM      68  66  94 W13       30.12R
TWO HARBORS    TSTM      73  66  78 SW9G21    30.14R
SILVER BAY     CLOUDY    70  68  94 CALM      30.10R
GRAND MARAIS     N/A     65  63  93 CALM      30.07S
G MARAIS ARPRT CLEAR     64  61  88 CALM      30.13S
$$
MNZ029>031-032-039>041-046>048-054>057-064-300400-
   West Central Minnesota

CITY           SKY/WX    TMP DP  RH WIND       PRES   REMARKS
FERGUS FALLS   CLEAR     66  66 100 CALM      30.19R
WHEATON        CLOUDY    72  66  83 N5        30.19S
MORRIS         CLOUDY    73  72  94 N8        30.16R
ALEXANDRIA     CLOUDY    73  68  84 N7        30.19R
ELBOW LAKE     FAIR      70  68  91 N8        30.18R
GLENWOOD       CLOUDY    73  72  94 N10       30.17R
APPLETON       CLOUDY    79  72  78 NW16      30.12F
BENSON         CLOUDY    77  70  78 NE5       30.13S
ORTONVILLE     CLOUDY    75  68  78 N9        30.15S
MADISON        PTCLDY    75  73  94 W3        30.13S
WILLMAR        MOCLDY    77  73  88 NW3       30.15S
$$
MNZ033>034-036-042>043-049>051-058-059-300400-
   Central Minnesota

CITY           SKY/WX    TMP DP  RH WIND       PRES   REMARKS
ST CLOUD       TSTM      67  67 100 E15G33    30.16R VSB 3/4
SAUK CENTRE    MOCLDY    75  71  87 N7        30.16R
PAYNESVILLE    CLOUDY    74  74 100 W6        30.14R THUNDER
AITKIN         CLOUDY    73  64  73 CALM      30.15R
PINE RIVER     CLEAR     68  66  94 CALM      30.20R
BRAINERD       CLOUDY    74  68  81 N6        30.16R
STAPLES        CLOUDY    68  64  88 NW3       30.17R
LONG PRAIRIE   CLOUDY    73  70  88 NW3       30.17R
LITTLE FALLS   CLOUDY    72  66  83 E3        30.16R
LITCHFIELD     CLOUDY    75  73  94 CALM      30.14R
BUFFALO        CLOUDY    73  61  65 N14G25    30.15R
MAPLE LAKE     RAIN      72  66  82 NE14G24   30.15R
HUTCHINSON     MOCLDY    76  74  95 S5        30.16R
$$
MNZ037-044-045-052-053-300400-
   East Central Minnesota

CITY           SKY/WX    TMP DP  RH WIND       PRES   REMARKS
PRINCETON      TSTM      68  64  88 W10       30.15F
MORA           CLOUDY    64  63  94 S5        30.16R
CAMBRIDGE      TSTM      70  61  73 S9        30.11F
RUSH CITY      TSTM      69  67  93 NE7       30.16R
MOOSE LAKE     RAIN      66  63  88 NW8       30.15R
HINCKLEY       FAIR      64  64 100 SE6       30.14S
CLOQUET        CLOUDY    70  63  78 S6G12     30.17R
MCGREGOR       CLOUDY    72  64  78 S8        30.16R
$$
MNZ071>073-080-081-089-090-097-098-300400-
   Southwest Minnesota

CITY           SKY/WX    TMP DP  RH WIND       PRES   REMARKS
MONTEVIDEO     PTCLDY    75  72  88 CALM      30.15R
GRANITE FALLS  PTCLDY    76  72  86 SW7       30.15S
CANBY          MOCLDY    76  71  84 SW5       30.15F
MARSHALL       CLEAR     73  70  90 SW7       30.16R
REDWOOD FALLS  CLEAR     76  70  82 SW8       30.15R
OLIVIA         PTCLDY    73  72  94 SW6       30.14R
PIPESTONE        N/A     72  70  94 S3        30.21R
WINDOM         CLEAR     73  70  88 S3        30.19R
WORTHINGTON    CLOUDY    72  70  93 S5        30.21R
JACKSON        CLOUDY    72  68  88 SW5       30.20R
TRACY          PTCLDY    75  70  85 SW10      30.18R
SLAYTON        CLOUDY    68  66  94 SW6       30.22R
$$
MNZ065>067-074>077-082>085-091>093-300400-
   South Central Minnesota

CITY           SKY/WX    TMP DP  RH WIND       PRES   REMARKS
NEW ULM        PTCLDY    73  70  88 S7        30.15S
ST JAMES       CLEAR     72  70  94 S3        30.18R
FAIRMONT       MOCLDY    69  67  93 S6        30.19R
GLENCOE        CLOUDY    76  73  91 S7        30.15R
FARIBAULT      CLEAR     72  70  94 S5        30.16S
OWATONNA       CLEAR     72  66  83 S5        30.18R
WASECA         CLEAR     70  66  88 S3        30.19R
ALBERT LEA     PTCLDY    72  68  88 CALM      30.19R
$$
MNZ078>079-086>088-094>096-300400-
   Southeast Minnesota

CITY           SKY/WX    TMP DP  RH WIND       PRES   REMARKS
ROCHESTER      PTCLDY    69  69 100 S5        30.19R
RED WING       PTCLDY    72  70  94 CALM      30.14S
STANTON        CLEAR     72  68  88 S3        30.13F
DODGE CENTER   CLEAR     68  66  94 CALM      30.18S
WINONA         CLEAR     73  72  94 CALM      30.17S
AUSTIN         CLOUDY    72  68  88 CALM      30.18S
PRESTON        PTCLDY    70  68  92 S5        30.19S
$$
ABBREVIATIONS USED IN REMARKS
   TC - TEMPERATURES IN CELSIUS
  WCI - WIND CHILL INDEX
   HX - HEAT INDEX
  VSB - VISIBILITY
$$




USA.gov is the U.S. government's official web portal to all federal, state and local government web resources and services.